Tracking 29606 objects as of 18-Sep-2024
HD Live streaming from Space Station
objects crossing your sky now

STARLINK-4272

Track STARLINK-4272 now!
10-day predictions
STARLINK-4272 is classified as:


NORAD ID: 52866
Int'l Code: 2022-062AN
Perigee: 545.8 km
Apogee: 547.9 km
Inclination: 53.2 °
Period: 95.4 minutes
Semi major axis: 6917 km
RCS: Unknown
Launch date: June 17, 2022
Source: United States (US)
Launch site: AIR FORCE EASTERN TEST RANGE (AFETR)
Your satellite tracking list
Your tracking list is empty




NASA's NSSDC Master Catalog

Two Line Element Set (TLE):
1 52866U 22062AN  24262.19076800  .00003308  00000-0  22579-3 0  9998
2 52866  53.2135 277.0477 0001558  68.5430 291.5728 15.08852102125270
Source of the keplerian elements: AFSPC